Stations météo

réclame
Mon MeteoGroup
Ahaus, Allemagne (10309): Température de l'air & dewpoint: 17.07.2019 01:00:00 - 23.07.2019 01:00:00 (CEST)Ahaus, Allemagne (10309): Température de l'air 5cm & Température de l'air -5cm: 17.07.2019 01:00:00 - 23.07.2019 01:00:00 (CEST)Ahaus, Allemagne (10309): Température de l'air -20cm & Température de l'air -100cm: 17.07.2019 01:00:00 - 23.07.2019 01:00:00 (CEST)Ahaus, Allemagne (10309): Vitesse du vent & gusts: 17.07.2019 01:00:00 - 23.07.2019 01:00:00 (CEST)Ahaus, Allemagne (10309): Direction du vent: 17.07.2019 01:00:00 - 23.07.2019 01:00:00 (CEST)Ahaus, Allemagne (10309): reduced air pressure: 17.07.2019 01:00:00 - 23.07.2019 01:00:00 (CEST)Ahaus, Allemagne (10309): visibility: 17.07.2019 01:00:00 - 23.07.2019 01:00:00 (CEST)Ahaus, Allemagne (10309): Ensoleillement: 17.07.2019 01:00:00 - 23.07.2019 01:00:00 (CEST)Ahaus, Allemagne (10309): Quantités de précipitations: 17.07.2019 01:00:00 - 23.07.2019 01:00:00 (CEST)
Date & Time tt [°C] td [°C] tt 5cm [°C] tt -5cm [°C] tt -20cm [°C] tt -100cm [°C] ff [km/h] ff [knt] fx [km/h] fx [knt] dd ppp [hPa] vv [km] sd [min] rr [mm]
23.07.2019 01:00:00 - - - - - - - - - - - - - - -
23.07.2019 00:00:00 17,8 16,1 15,9 24,1 25,2 18,3 3 1 19 10 SE 1022,6 40 0 0,0
22.07.2019 23:00:00 20,4 16,3 17,1 25,4 25,5 18,3 5 3 10 5 W 1022,5 14 0 0,0
22.07.2019 22:00:00 23,0 15,8 19,0 27,1 25,8 18,3 5 3 14 8 WNW 1022,3 59 9 0,0
22.07.2019 21:00:00 25,5 15,3 25,0 29,1 25,9 18,3 11 6 21 11 W 1021,9 64 60 0,0
22.07.2019 20:00:00 26,9 14,9 27,8 31,0 25,8 18,3 13 7 24 13 W 1021,6 43 60 0,0
22.07.2019 19:00:00 27,5 14,5 29,5 32,6 25,4 18,3 14 8 29 16 W 1021,6 34 60 0,0
22.07.2019 18:00:00 27,9 14,8 31,1 33,6 24,8 18,2 13 7 32 18 W 1021,6 36 60 0,0
22.07.2019 17:00:00 27,6 14,3 31,6 34,1 24,2 18,2 14 8 26 14 W 1022,0 32 58 0,0
22.07.2019 16:00:00 26,8 14,9 30,0 32,4 23,5 18,2 14 8 28 15 SSW 1022,1 46 45 0,0
22.07.2019 15:00:00 25,3 13,8 28,9 31,0 22,8 18,2 14 8 25 14 SW 1022,5 44 16 0,0
22.07.2019 14:00:00 24,1 12,4 26,8 30,1 22,2 18,2 13 7 29 16 WSW 1023,0 44 13 0,0
22.07.2019 13:00:00 23,5 12,7 26,8 28,6 21,6 18,2 16 9 29 15 W 1023,2 36 10 0,0
22.07.2019 12:00:00 22,5 13,3 25,5 26,4 21,1 18,2 13 7 27 14 WSW 1023,2 32 13 0,0
22.07.2019 11:00:00 21,5 14,0 24,1 24,2 20,7 18,2 14 8 25 13 W 1023,0 18 1 0,0
22.07.2019 10:00:00 20,0 13,5 21,7 22,3 20,5 18,2 13 7 19 11 SW 1022,7 24 15 0,0
22.07.2019 09:00:00 18,3 12,7 19,5 19,9 20,5 18,2 8 4 13 7 S 1022,6 27 3 0,0
22.07.2019 08:00:00 16,9 12,5 17,3 19,0 20,6 18,2 8 5 13 7 SSE 1022,2 25 2 0,0
22.07.2019 07:00:00 15,4 12,6 15,0 18,4 20,8 18,2 5 3 9 5 S 1022,3 21 0 0,0
22.07.2019 06:00:00 14,2 11,9 13,5 18,4 21,1 18,2 7 4 9 5 SSE 1022,4 20 0 0,0
22.07.2019 05:00:00 14,4 11,7 13,1 18,6 21,4 18,2 5 3 6 4 SE 1022,7 26 0 0,0
22.07.2019 04:00:00 13,2 12,4 12,5 18,8 21,7 18,2 4 2 6 3 SSE 1023,2 23 0 0,0
22.07.2019 03:00:00 13,1 12,3 12,8 19,0 22,1 18,1 4 2 6 3 SE 1023,4 19 0 0,0
22.07.2019 02:00:00 12,6 11,7 11,3 19,4 22,5 18,1 2 1 13 7 SE 1023,5 20 0 0,0
22.07.2019 01:00:00 13,0 12,0 11,5 20,2 23,0 18,1 2 1 19 10 E 1023,6 26 0 0,0
22.07.2019 00:00:00 14,3 12,6 12,2 21,1 23,4 18,1 4 2 19 10 ESE 1023,3 33 0 0,0
21.07.2019 23:00:00 15,8 12,5 13,4 22,3 23,8 18,1 4 2 8 4 NE 1023,0 40 0 0,0
21.07.2019 22:00:00 17,0 13,4 14,7 23,8 24,2 18,1 5 3 10 5 NE 1022,9 33 0 0,0
21.07.2019 21:00:00 20,8 11,7 19,7 25,7 24,3 18,1 8 5 16 9 NW 1022,4 56 39 0,0
21.07.2019 20:00:00 22,2 11,7 22,7 27,6 24,4 18,1 8 4 22 12 WNW 1021,8 55 58 0,0
21.07.2019 19:00:00 22,7 11,6 24,1 28,7 24,2 18,1 14 8 23 12 WNW 1021,7 41 29 0,0
21.07.2019 18:00:00 22,9 11,4 24,9 30,0 23,9 18,1 16 8 29 15 W 1021,7 53 38 0,0
21.07.2019 17:00:00 23,4 11,7 27,2 30,9 23,4 18,1 15 8 30 16 WNW 1021,5 28 47 0,0
21.07.2019 16:00:00 23,5 11,2 26,8 30,7 22,8 18,1 16 9 34 19 NW 1021,3 32 48 0,0
21.07.2019 15:00:00 22,7 11,6 24,3 30,3 22,1 18,1 17 9 34 18 WNW 1021,3 45 37 0,0
21.07.2019 14:00:00 23,2 12,9 28,0 29,7 21,4 18,1 15 8 30 16 W 1020,9 38 57 0,0
21.07.2019 13:00:00 22,3 12,9 25,8 25,3 21,0 18,1 11 6 28 15 WSW 1020,6 44 23 0,0
21.07.2019 12:00:00 21,5 12,8 23,8 25,7 20,5 18,1 14 8 29 15 W 1020,1 46 48 0,0
21.07.2019 11:00:00 20,9 12,6 23,3 23,4 20,1 18,0 16 8 29 16 W 1019,6 28 53 0,0
21.07.2019 10:00:00 19,5 14,2 21,0 21,5 19,9 18,0 11 6 23 12 W 1019,0 26 41 0,0
21.07.2019 09:00:00 18,0 14,7 19,1 19,4 19,8 18,0 9 5 20 11 WSW 1018,5 24 27 0,0
21.07.2019 08:00:00 16,8 14,2 16,9 18,1 19,9 18,0 10 6 17 9 SW 1017,9 25 60 0,0
21.07.2019 07:00:00 15,3 13,9 14,7 17,1 20,2 18,0 10 5 13 7 SSW 1017,0 21 42 0,0
21.07.2019 06:00:00 14,8 13,6 13,7 17,0 20,5 18,0 7 4 15 8 SW 1016,2 22 0 0,0
21.07.2019 05:00:00 15,3 13,9 13,8 17,4 20,8 18,0 9 5 15 8 SW 1015,6 24 0 0,0
21.07.2019 04:00:00 15,6 14,5 14,3 17,9 21,1 18,0 8 4 19 11 SW 1015,1 17 0 0,0
21.07.2019 03:00:00 17,2 14,4 16,1 18,4 21,5 18,0 7 4 20 11 SW 1014,5 30 0 0,0
21.07.2019 02:00:00 17,6 14,6 16,4 18,7 21,8 17,9 10 5 20 11 W 1014,4 24 0 0,0
21.07.2019 01:00:00 17,4 14,7 15,3 19,3 22,2 17,9 5 3 15 8 WSW 1014,1 33 0 0,0
21.07.2019 00:00:00 17,0 15,3 14,3 20,2 22,5 17,9 5 3 11 6 SW 1013,7 21 0 0,0
20.07.2019 23:00:00 18,8 16,1 16,6 21,3 22,8 17,9 6 3 12 7 W 1013,2 31 0 0,0
20.07.2019 22:00:00 19,4 17,7 19,2 22,2 23,1 17,9 5 3 11 6 S 1012,5 14 0 0,0
20.07.2019 21:00:00 20,0 17,3 19,4 22,9 23,3 17,9 5 3 17 9 S 1011,4 39 11 0,0
20.07.2019 20:00:00 20,0 17,4 19,5 23,9 23,5 17,9 8 5 26 14 S 1010,6 38 31 0,0
20.07.2019 19:00:00 20,3 17,8 21,0 25,0 23,6 17,9 15 8 28 15 SSE 1010,5 29 43 0,0
20.07.2019 18:00:00 18,8 18,0 19,2 24,5 23,8 17,8 13 7 18 10 SE 1011,2 24 2 2,4
20.07.2019 17:00:00 19,8 15,2 19,5 27,4 23,6 17,8 12 6 25 13 SSE 1011,1 37 10 0,1
20.07.2019 16:00:00 22,9 14,2 29,9 29,2 23,1 17,8 10 5 18 10 NNE 1010,1 47 40 0,0
20.07.2019 15:00:00 22,1 15,2 27,2 27,4 22,9 17,8 10 5 20 11 NE 1010,6 42 40 0,0
20.07.2019 14:00:00 19,6 15,7 19,2 25,6 22,7 17,8 12 6 37 20 NW 1011,6 24 0 1,0
20.07.2019 13:00:00 24,4 14,0 25,5 27,8 22,3 17,8 14 8 29 16 WSW 1010,7 44 4 0,0
20.07.2019 12:00:00 24,9 15,1 26,5 26,8 21,9 17,7 15 8 30 16 WSW 1010,3 42 2 0,0
20.07.2019 11:00:00 24,9 14,5 25,9 25,7 21,5 17,7 15 8 26 14 SW 1010,0 42 13 0,0
20.07.2019 10:00:00 24,1 14,9 25,3 24,0 21,3 17,7 16 9 29 16 S 1010,1 49 54 0,0
20.07.2019 09:00:00 21,1 14,3 21,6 21,2 21,3 17,7 14 7 24 13 S 1010,3 36 18 0,0
20.07.2019 08:00:00 19,4 13,2 19,6 20,4 21,4 17,7 14 7 20 11 SSE 1010,7 36 41 0,0
20.07.2019 07:00:00 16,7 12,7 16,0 19,4 21,7 17,7 7 4 16 9 SSE 1011,0 28 2 0,0
20.07.2019 06:00:00 15,9 12,2 14,5 19,4 22,0 17,7 8 5 11 6 SSE 1011,4 25 0 0,0
20.07.2019 05:00:00 15,6 12,2 12,9 19,9 22,3 17,6 5 3 10 5 SE 1011,7 24 0 0,0
20.07.2019 04:00:00 16,0 12,8 13,3 20,6 22,6 17,6 2 1 14 8 SE 1012,2 22 0 0,0
20.07.2019 03:00:00 16,7 13,0 15,8 21,0 23,0 17,6 6 4 8 4 SE 1012,2 24 0 0,0
20.07.2019 02:00:00 15,3 13,4 14,1 21,4 23,4 17,6 5 3 6 3 SE 1012,9 18 0 0,0
20.07.2019 01:00:00 16,5 13,3 14,1 22,3 23,8 17,6 5 3 9 5 SSE 1013,2 25 0 0,0
20.07.2019 00:00:00 17,3 14,0 16,4 23,3 24,1 17,6 6 3 8 4 SE 1013,4 22 0 0,0
19.07.2019 23:00:00 19,3 14,4 18,5 24,6 24,4 17,6 7 4 8 4 SE 1013,3 28 0 0,0
19.07.2019 22:00:00 20,6 13,8 19,9 25,7 24,7 17,6 3 1 6 3 S 1013,5 13 0 0,0
19.07.2019 21:00:00 22,4 11,9 21,2 27,0 24,8 17,6 3 2 13 7 SW 1013,3 31 0 0,0
19.07.2019 20:00:00 23,3 10,4 23,5 29,0 24,8 17,5 9 5 18 10 SSW 1013,0 41 49 0,0
19.07.2019 19:00:00 24,9 10,8 27,5 30,5 24,5 17,5 8 4 17 9 W 1013,2 34 59 0,0
19.07.2019 18:00:00 24,2 10,8 27,4 31,0 24,2 17,5 6 3 20 11 W 1013,3 45 45 0,0
19.07.2019 17:00:00 23,5 13,0 25,4 30,4 23,9 17,5 10 5 24 13 W 1013,7 30 14 0,0
19.07.2019 16:00:00 23,7 12,5 26,8 31,0 23,4 17,5 9 5 21 12 W 1013,6 33 20 0,0
19.07.2019 15:00:00 23,5 11,9 26,5 31,1 22,8 17,5 12 7 21 11 WNW 1013,6 33 33 0,0
19.07.2019 14:00:00 23,6 10,2 27,6 29,9 22,2 17,5 13 7 23 13 WSW 1013,5 30 39 0,0
19.07.2019 13:00:00 22,4 13,5 26,4 28,6 21,6 17,5 10 5 25 13 WSW 1013,6 23 37 0,0
19.07.2019 12:00:00 22,5 14,6 26,6 26,9 21,2 17,4 12 7 22 12 SW 1013,7 21 37 0,0
19.07.2019 11:00:00 19,6 14,5 21,1 23,9 20,9 17,4 8 5 16 9 WSW 1014,0 18 5 0,0
19.07.2019 10:00:00 19,6 14,5 21,5 23,6 20,7 17,4 8 4 16 8 WSW 1013,9 19 29 0,0
19.07.2019 09:00:00 18,8 14,3 20,3 21,6 20,6 17,4 6 3 11 6 W 1013,4 21 55 0,0
19.07.2019 08:00:00 17,3 14,5 17,3 19,8 20,8 17,4 6 4 11 6 SW 1013,4 16 5 0,0
19.07.2019 07:00:00 17,2 14,5 16,8 19,8 20,9 17,4 5 3 13 7 SW 1012,9 20 0 0,0
19.07.2019 06:00:00 17,5 14,4 17,1 19,9 21,1 17,4 6 3 11 6 WSW 1012,7 22 0 0,0
19.07.2019 05:00:00 17,8 14,3 17,5 20,2 21,4 17,4 7 4 13 7 SW 1012,6 27 0 0,0
19.07.2019 04:00:00 17,8 14,5 17,5 20,4 21,6 17,4 5 3 13 7 SW 1012,3 26 0 0,0
19.07.2019 03:00:00 18,0 14,6 17,7 20,6 21,9 17,4 8 4 16 9 WSW 1012,3 21 0 0,0
19.07.2019 02:00:00 18,1 14,7 17,7 20,8 22,2 17,4 9 5 17 9 WSW 1012,3 19 0 0,0
19.07.2019 01:00:00 18,3 14,8 17,5 21,4 22,5 17,4 11 6 19 10 WSW 1012,2 17 0 0,0
19.07.2019 00:00:00 18,2 15,5 17,7 22,2 22,9 17,3 5 3 20 11 SW 1012,0 10 0 0,1
18.07.2019 23:00:00 19,6 14,4 19,4 23,0 23,2 17,3 14 7 31 17 W 1011,9 14 0 0,0
18.07.2019 22:00:00 19,5 13,5 18,8 24,1 23,5 17,3 8 4 13 7 SSW 1011,5 13 0 0,0
18.07.2019 21:00:00 21,0 13,5 20,5 25,5 23,7 17,3 4 2 19 10 W 1010,9 17 0 0,0
18.07.2019 20:00:00 21,7 12,6 21,7 27,0 23,7 17,3 13 7 23 12 W 1010,8 19 3 0,0
18.07.2019 19:00:00 23,1 11,5 24,1 28,7 23,6 17,3 15 8 32 17 WSW 1010,5 30 28 0,0
18.07.2019 18:00:00 24,4 11,2 26,5 29,5 23,3 17,3 16 9 29 16 W 1010,3 36 16 0,0
18.07.2019 17:00:00 24,6 10,8 26,2 29,9 23,0 17,3 11 6 26 14 WSW 1010,0 31 3 0,0
18.07.2019 16:00:00 24,9 11,6 27,0 30,8 22,4 17,3 13 7 29 16 WSW 1010,2 24 23 0,0
18.07.2019 15:00:00 24,8 11,6 27,1 30,9 21,8 17,3 15 8 31 17 SSW 1010,3 22 14 0,0
18.07.2019 14:00:00 24,7 12,0 27,9 30,8 21,0 17,3 18 10 29 15 SSW 1010,7 21 33 0,0
18.07.2019 13:00:00 24,3 11,0 27,2 30,0 20,1 17,3 14 8 28 15 S 1010,9 26 55 0,0
18.07.2019 12:00:00 23,5 12,5 26,7 27,2 19,4 17,3 11 6 25 14 S 1011,1 41 60 0,0
18.07.2019 11:00:00 21,6 12,1 23,9 24,4 18,8 17,3 18 10 27 15 SSE 1011,5 35 58 0,0
18.07.2019 10:00:00 20,9 11,9 22,5 21,7 18,5 17,3 16 9 26 14 SSE 1011,8 22 60 0,0
18.07.2019 09:00:00 18,2 12,3 19,1 18,9 18,4 17,3 11 6 16 9 S 1012,1 22 60 0,0
18.07.2019 08:00:00 15,6 12,5 15,8 17,1 18,5 17,3 10 5 15 8 SSE 1012,0 13 18 0,0
18.07.2019 07:00:00 13,8 12,0 13,2 16,2 18,8 17,3 5 3 8 4 SSW 1012,3 9 0 0,0
18.07.2019 06:00:00 11,9 11,3 10,3 16,1 19,1 17,3 4 2 9 5 E 1012,2 5 0 0,0
18.07.2019 05:00:00 12,1 11,4 10,4 16,4 19,4 17,3 3 2 6 4 SE 1012,5 8 0 0,0
18.07.2019 04:00:00 11,6 11,1 10,3 16,7 19,8 17,3 4 2 5 3 SSE 1012,9 5 0 0,0
18.07.2019 03:00:00 12,2 11,4 10,0 17,2 20,2 17,3 3 1 6 4 SSE 1013,2 9 0 0,0
18.07.2019 02:00:00 12,5 11,4 9,3 17,9 20,6 17,3 3 2 7 4 ESE 1013,5 11 0 0,0
18.07.2019 01:00:00 12,9 11,8 10,2 18,7 21,1 17,3 3 2 6 3 ESE 1013,5 14 0 0,0
18.07.2019 00:00:00 14,2 12,3 11,3 19,8 21,5 17,3 5 3 9 5 SE 1013,7 17 0 0,0
17.07.2019 23:00:00 15,2 12,8 12,5 21,1 21,9 17,3 4 2 7 4 ESE 1013,7 22 0 0,0
17.07.2019 22:00:00 17,7 12,9 14,3 22,8 22,2 17,3 4 2 9 5 ESE 1013,7 38 0 0,0
17.07.2019 21:00:00 20,8 12,0 19,9 24,8 22,3 17,4 4 2 12 7 E 1013,6 51 42 0,0
17.07.2019 20:00:00 21,9 11,4 25,1 26,2 22,3 17,4 6 4 11 6 NE 1013,6 44 23 0,0
17.07.2019 19:00:00 21,5 11,1 22,5 28,0 22,0 17,4 7 4 16 9 NNE 1013,7 52 16 0,0
17.07.2019 18:00:00 23,3 10,6 28,8 30,5 21,4 17,4 7 4 17 9 ENE 1014,0 39 56 0,0
17.07.2019 17:00:00 22,4 10,0 27,8 29,7 20,8 17,4 5 3 16 9 ESE 1014,5 42 44 0,0
17.07.2019 16:00:00 21,9 10,8 27,3 30,2 19,9 17,4 8 5 19 10 N 1014,9 33 51 0,0
17.07.2019 15:00:00 22,1 11,1 28,8 29,1 19,0 17,4 9 5 16 9 N 1015,2 25 50 0,0
17.07.2019 14:00:00 20,4 11,1 23,8 26,6 18,3 17,4 6 4 15 8 WNW 1015,7 25 46 0,0
17.07.2019 13:00:00 18,7 11,0 20,2 23,8 17,8 17,4 9 5 16 9 NW 1016,1 20 27 0,0
17.07.2019 12:00:00 18,6 12,1 22,3 21,3 17,4 17,4 9 5 18 10 NW 1016,1 22 14 0,0
17.07.2019 11:00:00 17,1 12,2 18,5 20,0 17,1 17,5 8 4 12 7 NW 1016,3 17 9 0,0
17.07.2019 10:00:00 16,6 12,3 18,6 18,4 16,9 17,5 6 3 10 6 NNE 1016,6 16 3 0,0
17.07.2019 09:00:00 15,9 11,8 17,3 17,3 16,8 17,5 5 3 8 5 N 1016,5 15 0 0,0
17.07.2019 08:00:00 15,3 12,0 16,2 16,4 16,8 17,5 6 3 9 5 NE 1016,4 18 0 0,0
17.07.2019 07:00:00 14,9 12,8 15,0 16,0 16,9 17,5 4 2 6 3 NE 1016,6 13 0 0,0
17.07.2019 06:00:00 14,7 13,3 14,4 15,9 16,9 17,5 3 1 5 3 ENE 1016,6 12 0 0,0
17.07.2019 05:00:00 14,8 13,1 14,5 16,0 17,0 17,5 3 2 8 4 NNW 1016,6 13 0 0,0
17.07.2019 04:00:00 14,9 13,6 14,6 16,1 17,1 17,5 4 2 19 10 NW 1016,9 12 0 0,0
17.07.2019 03:00:00 15,0 13,4 14,7 16,2 17,1 17,5 3 1 19 10 WNW 1017,2 14 0 0,0
17.07.2019 02:00:00 15,1 13,1 14,8 16,3 17,2 17,6 3 2 5 3 W 1017,4 18 0 0,0
17.07.2019 01:00:00 15,3 12,7 14,9 16,4 17,3 17,6 2 1 4 2 WSW 1017,6 19 0 0,0

tt = Température de l'air
td = dewpoint
tt 5cm = Température de l'air 5cm
tt -5cm = Température de l'air -5cm
tt -20cm = Température de l'air -20cm
tt -100cm = Température de l'air -100cm
ff = Vitesse du vent
fx = gusts
dd = Direction du vent
ppp = reduced air pressure
vv = visibility
sd = Ensoleillement
rr = Quantités de précipitations

stations d'obs. à proximité